Location: Burland Observatory
(39.4088°N, 105.4217°W)
Time: 18:31:17
(UTC-07:00)

Explorer 7 - Pass Details

Date: 11 December 2019
Orbit: 485 x 679 km, 50.3° (Epoch: 23 January)

Event Time Altitude Azimuth Distance (km) Brightness Sun altitude
Rises 19:18:52 0° 303° (WNW) 3,030 11.3 -30.2°
Reaches altitude 10° 19:21:37 10° 316° (NW) 2,112 10.2 -30.7°
Enters shadow 19:23:15 18° 331° (NNW) 1,654 9.4 -31.0°
